Time,TemperatureF,DewpointF,PressureIn,WindDirection,WindDirectionDegrees,WindSpeedMPH,WindSpeedGustMPH,Humidity,HourlyPrecipIn,Conditions,Clouds,dailyrainin,SoftwareType,DateUTC
2013-03-30 00:03:00,60.4,51.0,29.79,NNW,338,0.0,0.0,71,0.00,,---,0.00,VWS V14.00,2013-03-30 07:03:00,
2013-03-30 00:08:00,60.4,51.4,29.79,WNW,292,0.0,0.0,72,0.00,,---,0.00,VWS V14.00,2013-03-30 07:08:00,
2013-03-30 00:13:00,60.3,51.2,29.79,NW,315,1.6,2.2,72,0.00,,---,0.00,VWS V14.00,2013-03-30 07:13:00,
2013-03-30 00:19:00,60.1,51.0,29.79,NNW,338,1.6,2.2,72,0.00,,---,0.00,VWS V14.00,2013-03-30 07:19:00,
2013-03-30 00:24:00,60.1,51.0,29.79,WNW,292,1.3,2.2,72,0.00,,---,0.00,VWS V14.00,2013-03-30 07:24:00,
2013-03-30 00:29:00,60.1,51.4,29.79,NNW,338,0.0,1.6,73,0.00,,---,0.00,VWS V14.00,2013-03-30 07:29:00,
2013-03-30 00:35:00,60.1,51.4,29.79,East,90,0.0,0.0,73,0.00,,---,0.00,VWS V14.00,2013-03-30 07:35:00,
2013-03-30 00:40:00,60.3,51.6,29.79,North,0,0.0,0.0,73,0.00,,---,0.00,VWS V14.00,2013-03-30 07:40:00,
2013-03-30 00:46:00,60.3,51.6,29.79,ENE,68,0.0,0.0,73,0.00,,---,0.00,VWS V14.00,2013-03-30 07:46:00,
2013-03-30 00:50:00,60.1,51.4,29.79,ENE,68,0.0,0.9,73,0.00,,---,0.00,VWS V14.00,2013-03-30 07:50:00,
2013-03-30 00:56:00,59.7,51.4,29.79,East,90,0.0,0.0,74,0.00,,---,0.00,VWS V14.00,2013-03-30 07:56:00,
2013-03-30 01:02:00,59.7,51.4,29.79,WNW,292,0.0,0.0,74,0.00,,---,0.00,VWS V14.00,2013-03-30 08:02:00,
2013-03-30 01:07:00,59.5,51.3,29.79,ESE,112,0.0,0.0,74,0.00,,---,0.00,VWS V14.00,2013-03-30 08:07:00,
2013-03-30 01:13:00,59.7,51.4,29.79,North,0,0.0,0.9,74,0.00,,---,0.00,VWS V14.00,2013-03-30 08:13:00,
2013-03-30 01:18:00,59.7,51.4,29.79,NNW,338,0.0,0.0,74,0.00,,---,0.00,VWS V14.00,2013-03-30 08:18:00,
2013-03-30 01:24:00,59.7,51.4,29.79,SSE,158,0.0,0.0,74,0.00,,---,0.00,VWS V14.00,2013-03-30 08:24:00,
2013-03-30 01:29:00,59.5,50.9,29.79,North,0,2.0,2.0,73,0.00,,---,0.00,VWS V14.00,2013-03-30 08:29:00,
2013-03-30 01:34:00,59.5,50.9,29.79,SSW,202,0.0,0.0,73,0.00,,---,0.00,VWS V14.00,2013-03-30 08:34:00,
2013-03-30 01:39:00,59.4,51.1,29.79,North,0,0.0,0.0,74,0.00,,---,0.00,VWS V14.00,2013-03-30 08:39:00,
2013-03-30 01:44:00,59.4,51.1,29.79,SSE,158,0.0,2.5,74,0.00,,---,0.00,VWS V14.00,2013-03-30 08:44:00,
2013-03-30 01:50:00,59.2,50.9,29.79,NNE,22,0.0,0.0,74,0.00,,---,0.00,VWS V14.00,2013-03-30 08:50:00,
2013-03-30 01:55:00,59.2,50.9,29.79,NNE,22,1.3,1.3,74,0.00,,---,0.00,VWS V14.00,2013-03-30 08:55:00,
2013-03-30 02:00:00,59.2,50.9,29.79,NNE,22,0.0,0.0,74,0.00,,---,0.00,VWS V14.00,2013-03-30 09:00:00,
2013-03-30 02:05:00,59.0,51.1,29.79,NE,45,0.0,0.0,75,0.00,,---,0.00,VWS V14.00,2013-03-30 09:05:00,
2013-03-30 02:11:00,59.0,51.1,29.79,NW,315,0.0,0.0,75,0.00,,---,0.00,VWS V14.00,2013-03-30 09:11:00,
2013-03-30 02:16:00,58.8,51.3,29.79,NW,315,1.3,1.6,76,0.00,,---,0.00,VWS V14.00,2013-03-30 09:16:00,
2013-03-30 02:22:00,58.8,51.3,29.79,West,270,0.0,0.0,76,0.00,,---,0.00,VWS V14.00,2013-03-30 09:22:00,
2013-03-30 02:27:00,58.6,51.1,29.79,WNW,292,0.0,0.0,76,0.00,,---,0.00,VWS V14.00,2013-03-30 09:27:00,
2013-03-30 02:33:00,58.6,51.1,29.79,East,90,0.0,0.0,76,0.00,,---,0.00,VWS V14.00,2013-03-30 09:33:00,
2013-03-30 02:36:00,58.6,51.1,29.76,ENE,68,0.0,0.0,76,0.00,,---,0.00,VWS V14.00,2013-03-30 09:36:00,
2013-03-30 02:41:00,58.5,50.9,29.76,East,90,0.0,0.0,76,0.00,,---,0.00,VWS V14.00,2013-03-30 09:41:00,
2013-03-30 02:47:00,58.3,51.1,29.76,ESE,112,0.0,0.0,77,0.00,,---,0.00,VWS V14.00,2013-03-30 09:47:00,
2013-03-30 02:52:00,58.3,51.1,29.76,ESE,112,0.0,0.0,77,0.00,,---,0.00,VWS V14.00,2013-03-30 09:52:00,
2013-03-30 02:57:00,58.1,50.9,29.76,North,0,0.0,0.0,77,0.00,,---,0.00,VWS V14.00,2013-03-30 09:57:00,
2013-03-30 03:02:00,58.1,51.3,29.76,NNW,338,0.0,0.0,78,0.00,,---,0.00,VWS V14.00,2013-03-30 10:02:00,
2013-03-30 03:08:00,57.9,50.8,29.76,WSW,248,0.0,0.0,77,0.00,,---,0.00,VWS V14.00,2013-03-30 10:08:00,
2013-03-30 03:13:00,57.9,51.1,29.76,North,0,0.0,0.0,78,0.00,,---,0.00,VWS V14.00,2013-03-30 10:13:00,
2013-03-30 03:18:00,58.1,51.3,29.76,NNE,22,0.0,0.0,78,0.00,,---,0.00,VWS V14.00,2013-03-30 10:18:00,
2013-03-30 03:23:00,58.1,51.3,29.76,NE,45,1.6,1.6,78,0.00,,---,0.00,VWS V14.00,2013-03-30 10:23:00,
2013-03-30 03:29:00,58.1,51.3,29.76,NW,315,0.0,0.0,78,0.00,,---,0.00,VWS V14.00,2013-03-30 10:29:00,
2013-03-30 03:34:00,57.9,51.1,29.76,NNW,338,0.0,0.0,78,0.00,,---,0.00,VWS V14.00,2013-03-30 10:34:00,
2013-03-30 03:39:00,57.7,50.9,29.76,NNW,338,0.0,0.0,78,0.00,,---,0.00,VWS V14.00,2013-03-30 10:39:00,
2013-03-30 03:44:00,57.7,50.9,29.76,SE,135,0.0,0.0,78,0.00,,---,0.00,VWS V14.00,2013-03-30 10:44:00,
2013-03-30 03:49:00,57.7,50.9,29.76,NNE,22,0.0,0.0,78,0.00,,---,0.00,VWS V14.00,2013-03-30 10:49:00,
2013-03-30 03:55:00,57.7,50.9,29.76,SSE,158,0.0,0.0,78,0.00,,---,0.00,VWS V14.00,2013-03-30 10:55:00,
2013-03-30 04:00:00,57.6,50.8,29.76,East,90,0.0,0.0,78,0.00,,---,0.00,VWS V14.00,2013-03-30 11:00:00,
2013-03-30 04:05:00,57.6,51.1,29.76,NNE,22,0.0,0.0,79,0.00,,---,0.00,VWS V14.00,2013-03-30 11:05:00,
2013-03-30 04:11:00,57.4,50.9,29.76,NNW,338,0.0,0.0,79,0.00,,---,0.00,VWS V14.00,2013-03-30 11:11:00,
2013-03-30 04:17:00,57.4,50.9,29.76,SSW,202,0.0,0.0,79,0.00,,---,0.00,VWS V14.00,2013-03-30 11:17:00,
2013-03-30 04:22:00,57.2,50.8,29.76,SE,135,0.0,0.0,79,0.00,,---,0.00,VWS V14.00,2013-03-30 11:22:00,
2013-03-30 04:27:00,57.4,50.9,29.76,SSE,158,0.0,0.0,79,0.00,,---,0.00,VWS V14.00,2013-03-30 11:27:00,
2013-03-30 04:33:00,57.2,50.8,29.76,ESE,112,0.0,0.0,79,0.00,,---,0.00,VWS V14.00,2013-03-30 11:33:00,
2013-03-30 04:38:00,57.2,51.1,29.76,ESE,112,0.0,0.0,80,0.00,,---,0.00,VWS V14.00,2013-03-30 11:38:00,
2013-03-30 04:43:00,57.0,50.9,29.76,ESE,112,0.0,0.0,80,0.00,,---,0.00,VWS V14.00,2013-03-30 11:43:00,
2013-03-30 04:49:00,57.2,51.1,29.76,SSE,158,0.0,0.0,80,0.00,,---,0.00,VWS V14.00,2013-03-30 11:49:00,
2013-03-30 04:54:00,57.2,51.1,29.76,ESE,112,0.0,0.0,80,0.00,,---,0.00,VWS V14.00,2013-03-30 11:54:00,
2013-03-30 05:00:00,57.0,50.9,29.76,SW,225,0.0,0.0,80,0.00,,---,0.00,VWS V14.00,2013-03-30 12:00:00,
2013-03-30 05:06:00,57.0,51.3,29.76,SW,225,0.0,0.0,81,0.00,,---,0.00,VWS V14.00,2013-03-30 12:06:00,
2013-03-30 05:11:00,56.8,51.1,29.76,SSE,158,0.0,0.0,81,0.00,,---,0.00,VWS V14.00,2013-03-30 12:11:00,
2013-03-30 05:16:00,56.8,51.1,29.76,SSE,158,0.0,0.0,81,0.00,,---,0.00,VWS V14.00,2013-03-30 12:16:00,
2013-03-30 05:21:00,56.8,51.1,29.76,SSE,158,1.3,1.6,81,0.00,,---,0.00,VWS V14.00,2013-03-30 12:21:00,
2013-03-30 05:27:00,56.8,51.1,29.76,South,180,0.0,0.0,81,0.00,,---,0.00,VWS V14.00,2013-03-30 12:27:00,
2013-03-30 05:32:00,56.8,51.1,29.76,South,180,0.0,0.0,81,0.00,,---,0.00,VWS V14.00,2013-03-30 12:32:00,
2013-03-30 05:38:00,56.8,51.1,29.76,SSE,158,1.3,1.3,81,0.00,,---,0.00,VWS V14.00,2013-03-30 12:38:00,
2013-03-30 05:43:00,56.8,51.4,29.76,WSW,248,0.0,0.0,82,0.00,,---,0.00,VWS V14.00,2013-03-30 12:43:00,
2013-03-30 05:48:00,56.7,50.9,29.76,South,180,0.0,0.0,81,0.00,,---,0.00,VWS V14.00,2013-03-30 12:48:00,
2013-03-30 05:53:00,56.7,51.2,29.76,WNW,292,0.0,0.0,82,0.00,,---,0.00,VWS V14.00,2013-03-30 12:53:00,
2013-03-30 05:59:00,56.7,51.2,29.76,SSW,202,0.0,0.0,82,0.00,,---,0.00,VWS V14.00,2013-03-30 12:59:00,
2013-03-30 06:05:00,56.7,51.2,29.74,South,180,0.0,0.0,82,0.00,,---,0.00,VWS V14.00,2013-03-30 13:05:00,
2013-03-30 06:11:00,56.7,51.2,29.74,SSW,202,0.0,0.0,82,0.00,,---,0.00,VWS V14.00,2013-03-30 13:11:00,
2013-03-30 06:16:00,56.7,51.2,29.74,SSW,202,0.9,2.7,82,0.00,,---,0.00,VWS V14.00,2013-03-30 13:16:00,
2013-03-30 06:21:00,56.7,51.2,29.74,SE,135,1.3,1.3,82,0.00,,---,0.00,VWS V14.00,2013-03-30 13:21:00,
2013-03-30 06:27:00,56.7,51.6,29.74,South,180,2.5,2.5,83,0.00,,---,0.00,VWS V14.00,2013-03-30 13:27:00,
2013-03-30 06:32:00,56.7,51.6,29.74,SSE,158,2.0,2.2,83,0.00,,---,0.00,VWS V14.00,2013-03-30 13:32:00,
2013-03-30 06:37:00,56.7,51.6,29.76,SSE,158,3.6,3.6,83,0.00,,---,0.00,VWS V14.00,2013-03-30 13:37:00,
2013-03-30 06:44:00,56.5,51.4,29.76,SW,225,0.0,1.6,83,0.00,,---,0.00,VWS V14.00,2013-03-30 13:44:00,
2013-03-30 06:50:00,56.5,51.4,29.76,SSE,158,1.1,1.1,83,0.00,,---,0.00,VWS V14.00,2013-03-30 13:50:00,
2013-03-30 06:56:00,56.5,51.4,29.76,SSE,158,2.7,2.7,83,0.00,,---,0.00,VWS V14.00,2013-03-30 13:56:00,
2013-03-30 07:01:00,56.3,51.5,29.76,SW,225,1.6,2.9,84,0.00,,---,0.00,VWS V14.00,2013-03-30 14:01:00,
2013-03-30 07:06:00,56.3,51.5,29.76,SSW,202,2.5,2.5,84,0.00,,---,0.00,VWS V14.00,2013-03-30 14:06:00,
2013-03-30 07:12:00,56.3,51.5,29.76,WSW,248,2.9,2.9,84,0.00,,---,0.00,VWS V14.00,2013-03-30 14:12:00,
2013-03-30 07:17:00,56.5,51.7,29.76,SW,225,2.2,2.2,84,0.00,,---,0.00,VWS V14.00,2013-03-30 14:17:00,
2013-03-30 07:22:00,56.3,51.5,29.76,SW,225,2.2,2.2,84,0.00,,---,0.00,VWS V14.00,2013-03-30 14:22:00,
2013-03-30 07:28:00,56.5,51.7,29.76,SSW,202,0.0,0.0,84,0.00,,---,0.00,VWS V14.00,2013-03-30 14:28:00,
2013-03-30 07:33:00,56.7,51.9,29.76,SE,135,1.1,1.1,84,0.00,,---,0.00,VWS V14.00,2013-03-30 14:33:00,
2013-03-30 07:38:00,56.7,51.9,29.76,SSE,158,0.0,0.0,84,0.00,,---,0.00,VWS V14.00,2013-03-30 14:38:00,
2013-03-30 07:44:00,56.8,52.1,29.76,South,180,1.6,2.0,84,0.00,,---,0.00,VWS V14.00,2013-03-30 14:44:00,
2013-03-30 07:49:00,56.8,52.1,29.76,WSW,248,0.0,0.0,84,0.00,,---,0.00,VWS V14.00,2013-03-30 14:49:00,
2013-03-30 07:55:00,56.8,52.4,29.76,WNW,292,0.0,1.1,85,0.00,,---,0.00,VWS V14.00,2013-03-30 14:55:00,
2013-03-30 08:00:00,57.0,52.2,29.76,SSE,158,1.6,1.6,84,0.00,,---,0.00,VWS V14.00,2013-03-30 15:00:00,
2013-03-30 08:06:00,57.0,52.2,29.76,WSW,248,0.0,0.0,84,0.00,,---,0.00,VWS V14.00,2013-03-30 15:06:00,
2013-03-30 08:12:00,57.2,52.4,29.76,SSE,158,0.0,0.0,84,0.00,,---,0.00,VWS V14.00,2013-03-30 15:12:00,
2013-03-30 08:17:00,57.4,52.6,29.76,South,180,0.9,1.6,84,0.00,,---,0.00,VWS V14.00,2013-03-30 15:17:00,
2013-03-30 08:23:00,57.6,52.8,29.79,NNW,338,0.0,0.0,84,0.00,,---,0.00,VWS V14.00,2013-03-30 15:23:00,
2013-03-30 08:28:00,57.6,52.8,29.79,NNW,338,0.0,2.5,84,0.00,,---,0.00,VWS V14.00,2013-03-30 15:28:00,
2013-03-30 08:33:00,57.7,53.0,29.79,WNW,292,2.5,2.5,84,0.00,,---,0.00,VWS V14.00,2013-03-30 15:33:00,
2013-03-30 08:39:00,57.9,53.1,29.76,NW,315,1.3,2.7,84,0.00,,---,0.00,VWS V14.00,2013-03-30 15:39:00,
2013-03-30 08:45:00,58.1,53.3,29.76,NW,315,1.6,2.5,84,0.00,,---,0.00,VWS V14.00,2013-03-30 15:45:00,
2013-03-30 08:50:00,58.1,53.0,29.76,NNW,338,2.0,2.0,83,0.00,,---,0.00,VWS V14.00,2013-03-30 15:50:00,
2013-03-30 08:55:00,58.1,53.0,29.76,WNW,292,1.3,1.3,83,0.00,,---,0.00,VWS V14.00,2013-03-30 15:55:00,
2013-03-30 09:00:00,58.3,53.2,29.76,NNE,22,0.0,0.0,83,0.00,,---,0.00,VWS V14.00,2013-03-30 16:00:00,
2013-03-30 09:06:00,58.3,53.2,29.76,South,180,0.9,0.9,83,0.00,,---,0.00,VWS V14.00,2013-03-30 16:06:00,
2013-03-30 09:11:00,58.5,53.3,29.76,NNW,338,0.0,0.0,83,0.00,,---,0.00,VWS V14.00,2013-03-30 16:11:00,
2013-03-30 09:16:00,58.8,53.7,29.76,East,90,0.0,2.0,83,0.00,,---,0.00,VWS V14.00,2013-03-30 16:16:00,
2013-03-30 09:21:00,59.2,53.7,29.76,SSE,158,0.0,1.6,82,0.00,,---,0.00,VWS V14.00,2013-03-30 16:21:00,
2013-03-30 09:27:00,59.2,53.7,29.76,East,90,0.9,2.7,82,0.00,,---,0.00,VWS V14.00,2013-03-30 16:27:00,
2013-03-30 09:33:00,59.4,53.5,29.76,NNE,22,0.9,2.9,81,0.00,,---,0.00,VWS V14.00,2013-03-30 16:33:00,
2013-03-30 09:39:00,59.5,53.7,29.76,SSE,158,1.1,2.5,81,0.00,,---,0.00,VWS V14.00,2013-03-30 16:39:00,
2013-03-30 09:44:00,59.7,53.9,29.76,SSE,158,1.6,2.5,81,0.00,,---,0.00,VWS V14.00,2013-03-30 16:44:00,
2013-03-30 09:49:00,59.9,54.1,29.76,NNE,22,1.3,2.5,81,0.00,,---,0.00,VWS V14.00,2013-03-30 16:49:00,
2013-03-30 09:55:00,59.9,53.7,29.76,ENE,68,0.0,0.0,80,0.00,,---,0.00,VWS V14.00,2013-03-30 16:55:00,
2013-03-30 10:01:00,60.3,54.1,29.76,NNE,22,2.5,2.7,80,0.00,,---,0.00,VWS V14.00,2013-03-30 17:01:00,
2013-03-30 10:06:00,60.3,54.1,29.79,NNE,22,3.4,3.4,80,0.00,,---,0.00,VWS V14.00,2013-03-30 17:06:00,
2013-03-30 10:12:00,60.6,54.4,29.79,NNE,22,1.6,1.6,80,0.00,,---,0.00,VWS V14.00,2013-03-30 17:12:00,
2013-03-30 10:18:00,60.8,54.3,29.79,ENE,68,2.7,2.7,79,0.00,,---,0.00,VWS V14.00,2013-03-30 17:18:00,
2013-03-30 10:23:00,60.8,53.9,29.76,ENE,68,3.1,3.1,78,0.00,,---,0.00,VWS V14.00,2013-03-30 17:23:00,
2013-03-30 10:28:00,61.0,54.1,29.76,ENE,68,2.0,2.5,78,0.00,,---,0.00,VWS V14.00,2013-03-30 17:28:00,
2013-03-30 10:33:00,61.0,54.1,29.76,NNW,338,1.1,2.7,78,0.00,,---,0.00,VWS V14.00,2013-03-30 17:33:00,
2013-03-30 10:38:00,61.3,54.4,29.79,NE,45,1.3,2.0,78,0.00,,---,0.00,VWS V14.00,2013-03-30 17:38:00,
2013-03-30 10:44:00,61.3,54.4,29.79,ENE,68,1.6,2.2,78,0.00,,---,0.00,VWS V14.00,2013-03-30 17:44:00,
2013-03-30 10:49:00,61.5,54.2,29.79,ENE,68,2.2,5.6,77,0.00,,---,0.00,VWS V14.00,2013-03-30 17:49:00,
2013-03-30 10:54:00,61.7,54.4,29.79,SSE,158,1.3,2.7,77,0.00,,---,0.00,VWS V14.00,2013-03-30 17:54:00,
2013-03-30 10:59:00,61.9,55.0,29.79,ENE,68,3.6,4.0,78,0.00,,---,0.00,VWS V14.00,2013-03-30 17:59:00,
2013-03-30 11:05:00,62.2,55.0,29.79,SSW,202,1.3,2.2,77,0.00,,---,0.00,VWS V14.00,2013-03-30 18:05:00,
2013-03-30 11:10:00,62.2,54.6,29.79,NNE,22,1.3,2.5,76,0.00,,---,0.00,VWS V14.00,2013-03-30 18:10:00,
2013-03-30 11:16:00,62.4,54.8,29.79,NE,45,2.7,2.7,76,0.00,,---,0.00,VWS V14.00,2013-03-30 18:16:00,
2013-03-30 11:21:00,62.4,54.4,29.79,ENE,68,2.0,3.6,75,0.00,,---,0.00,VWS V14.00,2013-03-30 18:21:00,
2013-03-30 11:26:00,62.2,54.2,29.79,North,0,2.0,2.7,75,0.00,,---,0.00,VWS V14.00,2013-03-30 18:26:00,
2013-03-30 11:31:00,62.6,54.6,29.79,SSW,202,0.0,0.0,75,0.00,,---,0.00,VWS V14.00,2013-03-30 18:31:00,
2013-03-30 11:38:00,63.0,55.3,29.79,WNW,292,3.6,3.6,76,0.00,,---,0.00,VWS V14.00,2013-03-30 18:38:00,
2013-03-30 11:42:00,63.3,55.6,29.79,NW,315,1.1,2.9,76,0.00,,---,0.00,VWS V14.00,2013-03-30 18:42:00,
2013-03-30 11:48:00,63.7,55.6,29.79,WNW,292,3.4,3.6,75,0.00,,---,0.00,VWS V14.00,2013-03-30 18:48:00,
2013-03-30 11:53:00,63.7,55.6,29.79,NW,315,1.6,2.5,75,0.00,,---,0.00,VWS V14.00,2013-03-30 18:53:00,
2013-03-30 11:59:00,63.9,55.4,29.79,NW,315,2.2,4.3,74,0.00,,---,0.00,VWS V14.00,2013-03-30 18:59:00,
2013-03-30 12:04:00,63.7,54.9,29.79,NNE,22,0.9,2.9,73,0.00,,---,0.00,VWS V14.00,2013-03-30 19:04:00,
2013-03-30 12:09:00,63.9,55.0,29.79,NE,45,3.6,3.6,73,0.00,,---,0.00,VWS V14.00,2013-03-30 19:09:00,
2013-03-30 12:14:00,64.4,55.6,29.79,NW,315,0.0,4.0,73,0.00,,---,0.00,VWS V14.00,2013-03-30 19:14:00,
2013-03-30 12:19:00,64.6,55.7,29.79,SSE,158,3.4,3.4,73,0.00,,---,0.00,VWS V14.00,2013-03-30 19:19:00,
2013-03-30 12:25:00,64.6,55.4,29.79,NNE,22,2.7,2.7,72,0.00,,---,0.00,VWS V14.00,2013-03-30 19:25:00,
2013-03-30 12:30:00,64.8,55.5,29.79,WNW,292,2.7,2.7,72,0.00,,---,0.00,VWS V14.00,2013-03-30 19:30:00,
2013-03-30 12:36:00,65.1,55.9,29.76,ENE,68,2.0,2.5,72,0.00,,---,0.00,VWS V14.00,2013-03-30 19:36:00,
2013-03-30 12:41:00,66.2,56.5,29.76,ESE,112,3.6,3.6,71,0.00,,---,0.00,VWS V14.00,2013-03-30 19:41:00,
2013-03-30 12:46:00,66.6,56.9,29.76,NW,315,2.9,5.6,71,0.00,,---,0.00,VWS V14.00,2013-03-30 19:46:00,
2013-03-30 12:51:00,67.5,57.7,29.76,West,270,2.9,6.0,71,0.00,,---,0.00,VWS V14.00,2013-03-30 19:51:00,
2013-03-30 12:57:00,67.8,58.1,29.76,North,0,3.4,3.4,71,0.00,,---,0.00,VWS V14.00,2013-03-30 19:57:00,
2013-03-30 13:01:00,68.5,58.0,29.76,NW,315,2.2,3.4,69,0.00,,---,0.00,VWS V14.00,2013-03-30 20:01:00,
2013-03-30 13:06:00,68.5,57.6,29.76,NNE,22,2.0,2.9,68,0.00,,---,0.00,VWS V14.00,2013-03-30 20:06:00,
2013-03-30 13:12:00,69.1,58.1,29.76,ENE,68,2.9,4.3,68,0.00,,---,0.00,VWS V14.00,2013-03-30 20:12:00,
2013-03-30 13:18:00,69.8,58.4,29.76,North,0,1.6,2.5,67,0.00,,---,0.00,VWS V14.00,2013-03-30 20:18:00,
2013-03-30 13:23:00,70.3,58.9,29.76,NNW,338,3.6,4.0,67,0.00,,---,0.00,VWS V14.00,2013-03-30 20:23:00,
2013-03-30 13:28:00,70.7,58.8,29.76,NNE,22,2.5,3.1,66,0.00,,---,0.00,VWS V14.00,2013-03-30 20:28:00,
2013-03-30 13:34:00,71.2,58.9,29.76,NNE,22,4.9,4.9,65,0.00,,---,0.00,VWS V14.00,2013-03-30 20:34:00,
2013-03-30 13:39:00,71.2,58.5,29.76,NNW,338,4.0,4.3,64,0.00,,---,0.00,VWS V14.00,2013-03-30 20:39:00,
2013-03-30 13:44:00,71.8,58.1,29.76,NNE,22,2.9,4.9,62,0.00,,---,0.00,VWS V14.00,2013-03-30 20:44:00,
2013-03-30 13:49:00,72.1,58.4,29.76,ESE,112,2.2,4.3,62,0.00,,---,0.00,VWS V14.00,2013-03-30 20:49:00,
2013-03-30 13:55:00,72.1,57.5,29.76,North,0,2.5,2.7,60,0.00,,---,0.00,VWS V14.00,2013-03-30 20:55:00,
2013-03-30 14:00:00,72.5,58.3,29.76,NW,315,1.6,4.0,61,0.00,,---,0.00,VWS V14.00,2013-03-30 21:00:00,
2013-03-30 14:05:00,73.2,58.5,29.76,NNE,22,2.0,3.4,60,0.00,,---,0.00,VWS V14.00,2013-03-30 21:05:00,
2013-03-30 14:10:00,73.4,57.7,29.76,ENE,68,2.5,5.4,58,0.00,,---,0.00,VWS V14.00,2013-03-30 21:10:00,
2013-03-30 14:16:00,73.2,57.6,29.76,WNW,292,4.9,4.9,58,0.00,,---,0.00,VWS V14.00,2013-03-30 21:16:00,
2013-03-30 14:21:00,73.9,58.2,29.74,NNW,338,2.9,3.1,58,0.00,,---,0.00,VWS V14.00,2013-03-30 21:21:00,
2013-03-30 14:26:00,73.8,57.1,29.74,NNE,22,2.5,2.5,56,0.00,,---,0.00,VWS V14.00,2013-03-30 21:26:00,
2013-03-30 14:32:00,73.9,57.3,29.74,WNW,292,3.4,4.9,56,0.00,,---,0.00,VWS V14.00,2013-03-30 21:32:00,
2013-03-30 14:37:00,74.3,57.6,29.74,North,0,2.7,2.7,56,0.00,,---,0.00,VWS V14.00,2013-03-30 21:37:00,
2013-03-30 14:42:00,74.5,57.3,29.74,WNW,292,7.6,7.6,55,0.00,,---,0.00,VWS V14.00,2013-03-30 21:42:00,
2013-03-30 14:47:00,74.5,56.8,29.74,NNE,22,3.1,3.1,54,0.00,,---,0.00,VWS V14.00,2013-03-30 21:47:00,
2013-03-30 14:52:00,74.5,56.8,29.74,NNW,338,3.6,3.6,54,0.00,,---,0.00,VWS V14.00,2013-03-30 21:52:00,
2013-03-30 14:58:00,74.8,57.1,29.74,SW,225,2.0,2.0,54,0.00,,---,0.00,VWS V14.00,2013-03-30 21:58:00,
2013-03-30 15:04:00,74.1,55.4,29.74,WNW,292,3.4,3.4,52,0.00,,---,0.00,VWS V14.00,2013-03-30 22:04:00,
2013-03-30 15:09:00,73.2,54.6,29.74,NE,45,2.5,2.5,52,0.00,,---,0.00,VWS V14.00,2013-03-30 22:09:00,
2013-03-30 15:14:00,72.7,53.5,29.74,WSW,248,1.3,1.3,51,0.00,,---,0.00,VWS V14.00,2013-03-30 22:14:00,
2013-03-30 15:20:00,72.5,53.4,29.74,SSE,158,1.6,2.9,51,0.00,,---,0.00,VWS V14.00,2013-03-30 22:20:00,
2013-03-30 15:25:00,72.9,54.2,29.74,NNE,22,3.1,3.1,52,0.00,,---,0.00,VWS V14.00,2013-03-30 22:25:00,
2013-03-30 15:31:00,72.9,54.2,29.74,NNE,22,2.5,2.5,52,0.00,,---,0.00,VWS V14.00,2013-03-30 22:31:00,
2013-03-30 15:36:00,72.7,53.0,29.74,East,90,1.3,2.0,50,0.00,,---,0.00,VWS V14.00,2013-03-30 22:36:00,
2013-03-30 15:41:00,72.7,53.0,29.74,NNW,338,2.7,2.7,50,0.00,,---,0.00,VWS V14.00,2013-03-30 22:41:00,
2013-03-30 15:47:00,72.3,52.1,29.74,South,180,3.4,3.4,49,0.00,,---,0.00,VWS V14.00,2013-03-30 22:47:00,
2013-03-30 15:52:00,71.2,49.4,29.74,SSE,158,3.1,6.5,46,0.00,,---,0.00,VWS V14.00,2013-03-30 22:52:00,
2013-03-30 15:57:00,70.9,49.1,29.74,SSW,202,3.8,3.8,46,0.00,,---,0.00,VWS V14.00,2013-03-30 22:57:00,
2013-03-30 16:02:00,70.5,48.2,29.74,ENE,68,2.7,4.0,45,0.00,,---,0.00,VWS V14.00,2013-03-30 23:02:00,
2013-03-30 16:08:00,70.2,47.8,29.74,South,180,3.1,3.1,45,0.00,,---,0.00,VWS V14.00,2013-03-30 23:08:00,
2013-03-30 16:13:00,69.8,46.9,29.74,South,180,2.5,6.9,44,0.00,,---,0.00,VWS V14.00,2013-03-30 23:13:00,
2013-03-30 16:19:00,69.4,47.2,29.74,South,180,4.0,4.0,45,0.00,,---,0.00,VWS V14.00,2013-03-30 23:19:00,
2013-03-30 16:24:00,69.1,46.3,29.74,SSE,158,8.7,8.7,44,0.00,,---,0.00,VWS V14.00,2013-03-30 23:24:00,
2013-03-30 16:29:00,68.7,46.0,29.74,SE,135,3.4,3.4,44,0.00,,---,0.00,VWS V14.00,2013-03-30 23:29:00,
2013-03-30 16:34:00,68.5,45.8,29.74,SSW,202,4.5,4.5,44,0.00,,---,0.00,VWS V14.00,2013-03-30 23:34:00,
2013-03-30 16:39:00,68.4,45.6,29.74,SSW,202,3.4,7.4,44,0.00,,---,0.00,VWS V14.00,2013-03-30 23:39:00,
2013-03-30 16:44:00,68.4,45.6,29.74,SE,135,2.7,6.0,44,0.00,,---,0.00,VWS V14.00,2013-03-30 23:44:00,
2013-03-30 16:50:00,68.2,45.5,29.71,South,180,1.6,2.5,44,0.00,,---,0.00,VWS V14.00,2013-03-30 23:50:00,
2013-03-30 16:55:00,68.2,46.0,29.71,ESE,112,2.0,3.1,45,0.00,,---,0.00,VWS V14.00,2013-03-30 23:55:00,
2013-03-30 17:00:00,68.2,45.5,29.71,ESE,112,2.7,3.1,44,0.00,,---,0.00,VWS V14.00,2013-03-31 00:00:00,
2013-03-30 17:06:00,68.0,45.9,29.74,SSW,202,4.3,4.9,45,0.00,,---,0.00,VWS V14.00,2013-03-31 00:06:00,
2013-03-30 17:11:00,67.8,45.7,29.74,SW,225,2.7,3.4,45,0.00,,---,0.00,VWS V14.00,2013-03-31 00:11:00,
2013-03-30 17:17:00,67.8,46.9,29.74,SW,225,5.4,5.8,47,0.00,,---,0.00,VWS V14.00,2013-03-31 00:17:00,
2013-03-30 17:22:00,67.3,46.9,29.71,NW,315,3.4,3.4,48,0.00,,---,0.00,VWS V14.00,2013-03-31 00:22:00,
2013-03-30 17:28:00,66.9,47.2,29.71,SSE,158,4.0,4.3,49,0.00,,---,0.00,VWS V14.00,2013-03-31 00:28:00,
2013-03-30 17:33:00,66.2,47.0,29.71,South,180,4.3,6.3,50,0.00,,---,0.00,VWS V14.00,2013-03-31 00:33:00,
2013-03-30 17:38:00,65.1,48.1,29.74,SSE,158,4.3,4.3,54,0.00,,---,0.00,VWS V14.00,2013-03-31 00:38:00,
2013-03-30 17:44:00,64.2,48.7,29.74,SSW,202,1.3,5.4,57,0.00,,---,0.00,VWS V14.00,2013-03-31 00:44:00,
2013-03-30 17:50:00,63.7,49.1,29.71,SW,225,3.4,3.4,59,0.00,,---,0.00,VWS V14.00,2013-03-31 00:50:00,
2013-03-30 17:56:00,63.1,49.0,29.71,SE,135,2.5,3.1,60,0.00,,---,0.00,VWS V14.00,2013-03-31 00:56:00,
2013-03-30 18:01:00,62.8,49.6,29.71,NW,315,0.0,0.9,62,0.00,,---,0.00,VWS V14.00,2013-03-31 01:01:00,
2013-03-30 18:06:00,62.6,50.3,29.71,SSW,202,1.1,1.1,64,0.00,,---,0.00,VWS V14.00,2013-03-31 01:06:00,
2013-03-30 18:10:00,62.6,50.3,29.71,NNW,338,4.3,4.3,64,0.00,,---,0.00,VWS V14.00,2013-03-31 01:10:00,
2013-03-30 18:16:00,62.4,50.9,29.71,ESE,112,2.9,2.9,66,0.00,,---,0.00,VWS V14.00,2013-03-31 01:16:00,
2013-03-30 18:22:00,62.4,51.3,29.71,ESE,112,0.9,2.9,67,0.00,,---,0.00,VWS V14.00,2013-03-31 01:22:00,
2013-03-30 18:28:00,62.6,51.5,29.71,West,270,0.0,0.0,67,0.00,,---,0.00,VWS V14.00,2013-03-31 01:28:00,
2013-03-30 18:33:00,62.6,51.5,29.71,SSE,158,2.5,2.5,67,0.00,,---,0.00,VWS V14.00,2013-03-31 01:33:00,
2013-03-30 18:38:00,62.6,51.1,29.71,SSE,158,3.6,3.6,66,0.00,,---,0.00,VWS V14.00,2013-03-31 01:38:00,
2013-03-30 18:43:00,62.6,50.7,29.71,South,180,2.7,4.0,65,0.00,,---,0.00,VWS V14.00,2013-03-31 01:43:00,
2013-03-30 18:49:00,62.6,51.1,29.71,South,180,2.7,2.7,66,0.00,,---,0.00,VWS V14.00,2013-03-31 01:49:00,
2013-03-30 18:55:00,62.6,51.5,29.71,South,180,2.7,2.7,67,0.00,,---,0.00,VWS V14.00,2013-03-31 01:55:00,
2013-03-30 19:00:00,62.4,52.1,29.71,South,180,2.7,2.7,69,0.00,,---,0.00,VWS V14.00,2013-03-31 02:00:00,
2013-03-30 19:06:00,62.4,52.1,29.74,South,180,2.7,2.7,69,0.00,,---,0.00,VWS V14.00,2013-03-31 02:06:00,
2013-03-30 19:11:00,62.4,52.5,29.74,South,180,2.7,2.7,70,0.00,,---,0.00,VWS V14.00,2013-03-31 02:11:00,
2013-03-30 19:17:00,62.4,52.9,29.74,South,180,2.7,2.7,71,0.00,,---,0.00,VWS V14.00,2013-03-31 02:17:00,
2013-03-30 19:22:00,62.2,52.3,29.71,South,180,2.7,2.7,70,0.00,,---,0.00,VWS V14.00,2013-03-31 02:22:00,
2013-03-30 19:27:00,62.2,52.3,29.71,South,180,2.7,2.7,70,0.00,,---,0.00,VWS V14.00,2013-03-31 02:27:00,
2013-03-30 19:32:00,62.2,52.3,29.71,South,180,2.7,2.7,70,0.00,,---,0.00,VWS V14.00,2013-03-31 02:32:00,
2013-03-30 19:37:00,62.2,52.3,29.74,South,180,2.7,2.7,70,0.00,,---,0.00,VWS V14.00,2013-03-31 02:37:00,
2013-03-30 19:43:00,62.1,52.2,29.74,South,180,2.7,2.7,70,0.00,,---,0.00,VWS V14.00,2013-03-31 02:43:00,
2013-03-30 19:48:00,61.9,51.6,29.74,SSE,158,2.9,2.9,69,0.00,,---,0.00,VWS V14.00,2013-03-31 02:48:00,
2013-03-30 19:54:00,61.9,51.6,29.74,SSE,158,2.0,2.9,69,0.00,,---,0.00,VWS V14.00,2013-03-31 02:54:00,
2013-03-30 19:59:00,61.7,51.4,29.74,ESE,112,2.5,3.8,69,0.00,,---,0.00,VWS V14.00,2013-03-31 02:59:00,
2013-03-30 20:06:00,61.7,51.4,29.74,ESE,112,2.7,2.7,69,0.00,,---,0.00,VWS V14.00,2013-03-31 03:06:00,
2013-03-30 20:12:00,61.7,51.4,29.74,ESE,112,1.3,3.8,69,0.00,,---,0.00,VWS V14.00,2013-03-31 03:12:00,
2013-03-30 20:18:00,61.7,51.8,29.74,ESE,112,2.0,3.1,70,0.00,,---,0.00,VWS V14.00,2013-03-31 03:18:00,
2013-03-30 20:23:00,61.7,51.8,29.74,SSE,158,3.8,4.9,70,0.00,,---,0.00,VWS V14.00,2013-03-31 03:23:00,
2013-03-30 20:28:00,61.5,51.7,29.74,ESE,112,2.0,3.1,70,0.00,,---,0.00,VWS V14.00,2013-03-31 03:28:00,
2013-03-30 20:33:00,61.3,51.5,29.74,SSE,158,3.6,3.6,70,0.00,,---,0.00,VWS V14.00,2013-03-31 03:33:00,
2013-03-30 20:39:00,61.3,51.5,29.74,ESE,112,1.6,3.1,70,0.00,,---,0.00,VWS V14.00,2013-03-31 03:39:00,
2013-03-30 20:45:00,61.2,51.3,29.74,SSE,158,2.0,2.7,70,0.00,,---,0.00,VWS V14.00,2013-03-31 03:45:00,
2013-03-30 20:50:00,61.0,51.5,29.74,SSW,202,0.9,0.9,71,0.00,,---,0.00,VWS V14.00,2013-03-31 03:50:00,
2013-03-30 20:55:00,61.0,51.5,29.74,SSE,158,0.0,1.6,71,0.00,,---,0.00,VWS V14.00,2013-03-31 03:55:00,
2013-03-30 21:00:00,61.0,51.9,29.74,SSE,158,1.6,1.6,72,0.00,,---,0.00,VWS V14.00,2013-03-31 04:00:00,
2013-03-30 21:02:00,61.0,51.9,29.74,SSE,158,3.1,3.1,72,0.00,,---,0.00,VWS V14.00,2013-03-31 04:02:00,
2013-03-30 21:03:00,61.0,51.9,29.74,SSE,158,1.6,3.1,72,0.00,,---,0.00,VWS V14.00,2013-03-31 04:03:00,
2013-03-30 21:05:00,60.8,51.7,29.76,West,270,0.9,2.5,72,0.00,,---,0.00,VWS V14.00,2013-03-31 04:05:00,
2013-03-30 21:10:00,60.6,51.9,29.76,West,270,0.0,0.0,73,0.00,,---,0.00,VWS V14.00,2013-03-31 04:10:00,
2013-03-30 21:15:00,60.6,51.9,29.76,WSW,248,0.0,0.0,73,0.00,,---,0.00,VWS V14.00,2013-03-31 04:15:00,
2013-03-30 21:21:00,60.4,52.1,29.76,SW,225,0.0,0.0,74,0.00,,---,0.00,VWS V14.00,2013-03-31 04:21:00,
2013-03-30 21:25:00,60.4,52.1,29.76,WNW,292,3.8,3.8,74,0.00,,---,0.00,VWS V14.00,2013-03-31 04:25:00,
2013-03-30 21:31:00,60.3,52.0,29.76,NNW,338,0.0,1.1,74,0.00,,---,0.00,VWS V14.00,2013-03-31 04:31:00,
2013-03-30 21:37:00,60.1,52.1,29.76,NNW,338,0.0,0.0,75,0.00,,---,0.00,VWS V14.00,2013-03-31 04:37:00,
2013-03-30 21:48:00,60.1,52.5,29.76,SSW,202,0.0,0.0,76,0.00,,---,0.00,VWS V14.00,2013-03-31 04:48:00,
2013-03-30 21:53:00,60.1,52.5,29.76,South,180,0.0,0.0,76,0.00,,---,0.00,VWS V14.00,2013-03-31 04:53:00,
2013-03-30 21:58:00,60.1,52.9,29.76,WNW,292,0.0,0.0,77,0.00,,---,0.00,VWS V14.00,2013-03-31 04:58:00,
2013-03-30 22:03:00,60.1,53.2,29.76,NW,315,0.9,0.9,78,0.00,,---,0.00,VWS V14.00,2013-03-31 05:03:00,
2013-03-30 22:10:00,59.7,52.9,29.76,SW,225,2.7,2.7,78,0.00,,---,0.00,VWS V14.00,2013-03-31 05:10:00,
2013-03-30 22:15:00,59.7,52.9,29.76,SSE,158,0.0,2.0,78,0.00,,---,0.00,VWS V14.00,2013-03-31 05:15:00,
2013-03-30 22:21:00,59.7,52.9,29.76,SSW,202,0.9,0.9,78,0.00,,---,0.00,VWS V14.00,2013-03-31 05:21:00,
2013-03-30 22:26:00,59.7,52.9,29.76,SE,135,3.1,3.1,78,0.00,,---,0.00,VWS V14.00,2013-03-31 05:26:00,
2013-03-30 22:31:00,59.7,52.9,29.76,SSE,158,0.0,0.0,78,0.00,,---,0.00,VWS V14.00,2013-03-31 05:31:00,
2013-03-30 22:36:00,59.7,52.9,29.76,SSE,158,2.0,2.7,78,0.00,,---,0.00,VWS V14.00,2013-03-31 05:36:00,
2013-03-30 22:42:00,59.7,52.5,29.76,ESE,112,4.3,4.3,77,0.00,,---,0.00,VWS V14.00,2013-03-31 05:42:00,
2013-03-30 22:47:00,59.7,52.5,29.76,SSE,158,5.4,5.4,77,0.00,,---,0.00,VWS V14.00,2013-03-31 05:47:00,
2013-03-30 22:52:00,59.9,53.0,29.76,SSE,158,3.6,5.8,78,0.00,,---,0.00,VWS V14.00,2013-03-31 05:52:00,
2013-03-30 22:58:00,59.7,52.5,29.76,SSW,202,3.4,3.4,77,0.00,,---,0.00,VWS V14.00,2013-03-31 05:58:00,
2013-03-30 23:03:00,59.7,52.9,29.74,WNW,292,2.9,4.0,78,0.00,,---,0.00,VWS V14.00,2013-03-31 06:03:00,
2013-03-30 23:08:00,59.5,53.0,29.74,West,270,0.9,4.0,79,0.04,,---,0.04,VWS V14.00,2013-03-31 06:08:00,
2013-03-30 23:14:00,59.4,52.9,29.74,NNW,338,0.0,1.1,79,0.04,,---,0.04,VWS V14.00,2013-03-31 06:14:00,
2013-03-30 23:18:00,59.4,53.5,29.74,South,180,0.0,0.0,81,0.04,,---,0.04,VWS V14.00,2013-03-31 06:18:00,
2013-03-30 23:24:00,59.2,53.4,29.74,WNW,292,2.5,3.1,81,0.04,,---,0.04,VWS V14.00,2013-03-31 06:24:00,
2013-03-30 23:29:00,59.2,53.4,29.74,NW,315,0.0,0.0,81,0.04,,---,0.04,VWS V14.00,2013-03-31 06:29:00,
2013-03-30 23:34:00,59.2,53.7,29.74,SSE,158,3.4,3.4,82,0.04,,---,0.04,VWS V14.00,2013-03-31 06:34:00,
2013-03-30 23:39:00,59.0,53.5,29.74,SE,135,0.0,0.0,82,0.04,,---,0.04,VWS V14.00,2013-03-31 06:39:00,
2013-03-30 23:44:00,59.0,53.5,29.74,SSE,158,2.0,3.1,82,0.04,,---,0.04,VWS V14.00,2013-03-31 06:44:00,
2013-03-30 23:50:00,58.8,53.7,29.76,SSE,158,3.4,3.4,83,0.04,,---,0.04,VWS V14.00,2013-03-31 06:50:00,
2013-03-30 23:55:00,58.8,53.7,29.76,ESE,112,5.4,5.4,83,0.04,,---,0.04,VWS V14.00,2013-03-31 06:55:00,